PST,Max TemperatureF,Mean TemperatureF,Min TemperatureF,Max Dew PointF,MeanDew PointF,Min DewpointF,Max Humidity, Mean Humidity, Min Humidity, Max Sea Level PressureIn, Mean Sea Level PressureIn, Min Sea Level PressureIn, Max VisibilityMiles, Mean VisibilityMiles, Min VisibilityMiles, Max Wind SpeedMPH, Mean Wind SpeedMPH, Max Gust SpeedMPH,PrecipitationIn, CloudCover, Events, WindDirDegrees
2014-2-1,59,42,25,42,35,28,100,67,33,30.15,30.08,30.04,10,10,10,16,4,18,0.00,1,,199
2014-2-2,47,42,36,43,39,35,92,84,76,30.05,29.93,29.84,10,10,5,23,11,30,0.30,6,Rain,42
2014-2-3,58,45,31,43,36,30,100,72,43,30.08,30.02,29.96,10,9,0,16,5,21,0.00,1,,275
2014-2-4,53,40,27,40,33,27,100,73,46,30.15,30.09,30.06,10,6,0,9,2,12,0.00,1,,250
2014-2-5,52,48,43,43,33,24,100,80,59,30.18,30.13,30.05,10,5,0,14,4,17,0.14,3,Rain,235
2014-2-6,53,48,43,49,45,42,100,89,77,30.04,29.95,29.88,10,6,2,22,10,30,0.33,8,Rain,98
2014-2-7,53,50,47,52,50,48,100,97,93,30.07,30.02,29.97,10,5,2,14,6,19,0.76,8,Rain,144
2014-2-8,57,54,51,56,54,51,100,93,86,30.14,30.08,30.01,10,5,1,22,13,26,1.20,8,Rain,174
2014-2-9,57,56,55,57,56,55,100,100,100,30.14,30.08,30.03,10,6,2,22,15,27,0.62,8,Rain,198
2014-2-10,61,54,47,55,52,47,100,89,78,30.28,30.19,30.09,10,8,0,13,6,15,T,6,Fog-Rain,216
2014-2-11,60,52,44,51,48,44,100,84,67,30.26,30.21,30.14,10,5,0,10,3,12,0.00,5,Fog,198
2014-2-12,59,53,46,52,48,46,100,88,75,30.28,30.22,30.17,10,6,1,9,4,13,0.00,6,,274
2014-2-13,65,57,49,57,53,50,100,87,73,30.23,30.15,30.07,10,8,2,25,3,57,0.00,4,,250
2014-2-14,64,57,50,56,53,50,100,84,67,30.17,30.11,30.03,10,6,0,14,7,24,0.00,7,Fog,225
2014-2-15,60,56,51,55,53,51,100,89,78,30.05,29.99,29.96,10,9,3,21,9,25,0.01,7,Rain,210
2014-2-16,65,52,38,54,45,36,100,67,34,30.20,30.11,30.00,10,9,0,15,5,18,0.00,1,,268
2014-2-17,63,49,34,47,41,36,100,73,46,30.15,30.12,30.08,10,9,2,16,5,22,0.00,0,,288
2014-2-18,62,50,37,51,43,38,100,80,60,30.18,30.13,30.06,10,7,0,21,5,24,0.00,1,Fog-Snow,277
2014-2-19,66,55,43,53,47,41,100,72,43,30.18,30.12,30.06,10,10,10,16,7,19,T,2,,252
2014-2-20,66,51,36,45,40,37,100,70,39,30.20,30.14,30.09,10,10,10,9,2,12,0.00,0,,252
2014-2-21,70,53,35,49,42,36,100,67,33,30.10,30.03,29.96,10,10,10,13,3,14,0.00,0,,197
2014-2-22,69,53,37,50,43,38,100,66,31,30.01,29.96,29.89,10,9,2,14,4,15,0.00,0,,185
2014-2-23,68,53,37,52,45,38,100,76,52,30.04,29.98,29.92,10,5,0,9,3,10,0.00,4,Fog,356
2014-2-24,73,55,37,51,44,38,100,66,31,29.99,29.94,29.88,10,10,10,14,4,17,0.00,0,,121
2014-2-25,61,52,43,51,48,43,100,86,72,29.98,29.93,29.89,10,8,2,20,7,24,0.00,3,,173
2014-2-26,57,53,49,56,53,47,100,95,89,29.96,29.80,29.66,10,7,2,18,10,24,0.66,8,Rain,116
2014-2-27,63,58,52,53,51,46,96,79,62,29.89,29.77,29.51,10,9,2,22,12,33,0.01,4,Rain,195
2014-2-28,62,57,51,54,51,45,100,81,62,29.47,29.41,29.36,10,8,2,31,13,44,0.65,7,Rain,121